Regional Weather Roundup
Issued by NWS

Home | Current Version | Previous Version | Text Only | Print | Product List | Glossary On
Versions: 1 2 3 4 5 6 7 8 9 10 11 12 13 14 15 16 17 18 19 20 21 22 23 24 25 26 27 28 29 30 31 32 33 34 35 36 37 38 39 40 41 42 43 44 45 46 47 48 49 50
312
ASUS44 KLIX 201105
RWRLA
LOUISIANA WEATHER ROUNDUP
NATIONAL WEATHER SERVICE NEW ORLEANS LA
600 AM CDT WED AUG 20 2014

NOTE: "FAIR" INDICATES FEW OR NO CLOUDS BELOW 12,000 FEET WITH NO
      SIGNIFICANT WEATHER AND/OR OBSTRUCTIONS TO VISIBILITY.
      SKY/WX - SKY CONDITION AND SIGNIFICANT WEATHER.
      TMP - AIR TEMPERATURE.    DP   - DEWPOINT TEMPERATURE.
      RH  - RELATIVE HUMIDITY.  PRES - PRESSURE.
      HX  - HEAT INDEX.         WCI  - WIND CHILL INDEX.

*  THESE STATIONS ARE NOT NWS OR FAA STATIONS AND ARE NOT UNDER
   NWS QUALITY CONTROL.

LAZ040-048-061>063-065-066-069-201200-
SOUTHEAST LOUISIANA

CITY           SKY/WX    TMP DP  RH WIND       PRES   REMARKS
N.O. AUDUBON   NOT AVBL
N.O. INTL ARPT PTCLDY    78  74  87 CALM      30.00R
N.O. LAKEFRONT CLEAR     80  75  84 CALM      30.01R
N.O. DOWNTOWN* FAIR      82  73  74 S5        30.01S
SLIDELL        PTCLDY    74  71  91 N3        30.01R
BATON ROUGE    CLEAR     72  70  93 CALM      30.01R
BOOTHVILLE     CLEAR     84  76  76 S6        30.01R
BELLE CHASSE   PTCLDY    75  71  87 CALM      30.00R
BOGALUSA*        N/A     75  71  88 CALM      30.03R
GALLIANO*      NOT AVBL
NEW ROADS*     FAIR      71  71  98 CALM      30.00S
GONZALES*      FAIR      72  72 100 CALM      30.00R
HAMMOND*       MOCLDY    73  72  94 CALM      30.03R
HOUMA*         PTCLDY    73  72  94 CALM      30.00R
PORT FOURCHON* MOSUNNY   84  75  74 S7        30.02R

$$

LAZ041-044-053-054-201200-
SOUTHWEST LOUISIANA

CITY           SKY/WX    TMP DP  RH WIND       PRES   REMARKS
LAKE CHARLES   CLEAR     74  72  93 CALM      29.97R
LAFAYETTE      CLEAR     74  73  97 E3        30.00R
PATTERSON      CLEAR    N/A N/A N/A MISG        N/A
SALT POINT       N/A     86  78  77 VRB3      29.98R HX  98
NEW IBERIA     CLEAR     74  72  93 CALM      30.00R
CHENAULT AIRPK CLEAR     73  73 100 CALM      29.99R

$$

LAZ027-028-201200-
CENTRAL LOUISIANA

CITY           SKY/WX    TMP DP  RH WIND       PRES   REMARKS
FORT POLK      PTCLDY    71  70  96 SE3       29.99R
ALEXANDRIA INT MOCLDY    72  69  90 CALM      29.98R
ALEXANDRIA     CLOUDY    73  70  90 CALM      30.00R

$$

LAZ001-002-201200-
NORTHWEST LOUISIANA

CITY           SKY/WX    TMP DP  RH WIND       PRES   REMARKS
SHREVEPORT     PTCLDY    72  68  87 S3        29.97R
BARKSDALE AFB  PTCLDY    71  69  96 SE5       29.98R
DTN SHREVEPORT CLEAR     73  68  84 SE5       29.98R

$$

LAZ014-016-201200-
NORTHEAST LOUISIANA

CITY           SKY/WX    TMP DP  RH WIND       PRES   REMARKS
MONROE         PTCLDY    72  70  93 S5        30.00R
TALLULAH       MOCLDY    73  71  93 CALM      30.01R

$$




USA.gov is the U.S. government's official web portal to all federal, state and local government web resources and services.